Weather History for KPIE - January, 2013

Change the Weather History Date:

Saturday, January 26, 2013

  Actual Average (KTPA) Record (KTPA)
Temperature  
Mean Temperature 60 °F 61 °F  
Max Temperature 73 °F 70 °F 84 °F (1950)
Min Temperature 48 °F 52 °F 23 °F (1905)
Degree Days  
Heating Degree Days 4 5  
Month to date heating degree days 155  
Since 1 July heating degree days 338  
Cooling Degree Days 0 2  
Month to date cooling degree days 50  
Year to date cooling degree days 50  
Growing Degree Days 10 (Base 50)    
Moisture  
Dew Point 54 °F    
Average Humidity 81    
Maximum Humidity 97    
Minimum Humidity 53    
Precipitation  
Precipitation 0.01 in 0.08 in 0.95 in (1980)
Month to date precipitation 1.82  
Year to date precipitation 1.82  
Sea Level Pressure  
Sea Level Pressure 30.24 in    
Wind  
Wind Speed 4 mph (NNW)    
Max Wind Speed 15 mph    
Max Gust Speed -    
Visibility 9 miles    
Events      
T = Trace of Precipitation, MM = Missing Value Source: NWS Daily Summary

Daily Weather History Graph

Daily Weather History Graph

Search for Another Location

Airport or City:

Trip Planner

Search our weather history database for the weather conditions in past years. The results will help you decide how hot, cold, wet, or windy it might be!

Date:

Astronomy

Jan. 26, 2013 Rise Set
Actual Time 7:20 AM EST 6:06 PM EST
Civil Twilight 6:55 AM EST 6:31 PM EST
Nautical Twilight 6:27 AM EST 6:59 PM EST
Astronomical Twilight 5:59 AM EST 7:27 PM EST
Moon 5:56 PM EST (1/26) 6:40 AM EST (1/26)
Length of Visible Light 11h 35m
Length of Day
10h 46m
Full, 100% of the Moon is Illuminated
Jan 26
Full
Jan 26
Full
Feb 3
Last Quarter
Feb 10
New
Feb 17
First Quarter

Hourly Weather History & Observations

Time (EST) Temp. Dew Point Humidity Pressure Visibility Wind Dir Wind Speed Gust Speed Precip Events Conditions
12:53 AM 54.0 °F 53.1 °F 97% 30.25 in 8.0 mi NNW 5.8 mph - N/A   Clear
1:53 AM 55.9 °F 55.0 °F 97% 30.24 in 8.0 mi Calm Calm - N/A   Clear
2:53 AM 55.9 °F 53.1 °F 90% 30.23 in 10.0 mi NW 4.6 mph - N/A   Clear
3:53 AM 55.0 °F 52.0 °F 89% 30.22 in 10.0 mi Calm Calm - N/A   Clear
4:53 AM 53.1 °F 51.1 °F 93% 30.22 in 10.0 mi Calm Calm - 0.01 in   Clear
5:53 AM 50.0 °F 48.9 °F 96% 30.23 in 6.0 mi South 4.6 mph - N/A   Clear
6:53 AM 50.0 °F 48.9 °F 96% 30.25 in 10.0 mi Calm Calm - N/A   Clear
7:53 AM 48.9 °F 48.0 °F 97% 30.27 in 10.0 mi Calm Calm - N/A   Clear
8:53 AM 59.0 °F 57.0 °F 93% 30.28 in 5.0 mi SSE 3.5 mph - N/A   Clear
9:53 AM 64.9 °F 57.0 °F 75% 30.30 in 10.0 mi Calm Calm - N/A   Clear
10:53 AM 68.0 °F 55.0 °F 63% 30.30 in 10.0 mi NNE 3.5 mph - N/A   Partly Cloudy
11:53 AM 68.0 °F 55.9 °F 65% 30.28 in 10.0 mi NE 3.5 mph - N/A   Clear
12:53 PM 71.1 °F 55.0 °F 57% 30.26 in 10.0 mi NNE 4.6 mph - N/A   Clear
1:53 PM 73.0 °F 55.0 °F 53% 30.22 in 10.0 mi NW 9.2 mph - N/A   Clear
2:53 PM 72.0 °F 55.9 °F 57% 30.20 in 10.0 mi NW 11.5 mph - N/A   Partly Cloudy
3:53 PM 72.0 °F 57.0 °F 59% 30.20 in 10.0 mi NW 11.5 mph - N/A   Clear
4:53 PM 70.0 °F 55.9 °F 61% 30.20 in 10.0 mi NNW 15.0 mph - N/A   Partly Cloudy
5:53 PM 66.0 °F 57.0 °F 73% 30.22 in 10.0 mi NW 9.2 mph - N/A   Clear
6:53 PM 63.0 °F 55.9 °F 78% 30.22 in 10.0 mi NW 4.6 mph - N/A   Clear
7:53 PM 61.0 °F 55.9 °F 83% 30.23 in 10.0 mi WNW 3.5 mph - N/A   Clear
8:53 PM 59.0 °F 55.9 °F 90% 30.24 in 10.0 mi NW 3.5 mph - N/A   Clear
9:53 PM 57.9 °F 55.0 °F 90% 30.24 in 10.0 mi NW 3.5 mph - N/A   Clear
10:53 PM 57.0 °F 55.0 °F 93% 30.25 in 8.0 mi Calm Calm - N/A   Clear
11:53 PM 57.0 °F 55.9 °F 96% 30.25 in 6.0 mi Calm Calm - N/A   Clear